Weather History for K5H4 - March, 2012

Change the Weather History Date:

Wednesday, March 21, 2012

  Actual Average (KRUG) Record (KRUG)
Temperature  
Mean Temperature 48 °F -  
Max Temperature 62 °F 39 °F 59 °F (1985)
Min Temperature 33 °F 19 °F -13 °F (2013)
Degree Days  
Heating Degree Days 18    
Moisture  
Dew Point 27 °F    
Average Humidity 46    
Maximum Humidity 75    
Minimum Humidity 26    
Precipitation  
Precipitation 0.00 in - - ()
Sea Level Pressure  
Sea Level Pressure 29.88 in    
Wind  
Wind Speed 11 mph (SW)    
Max Wind Speed 17 mph    
Max Gust Speed 25 mph    
Visibility 10 miles    
Events      
Averages and records for this station are not official NWS values.
T = Trace of Precipitation, MM = Missing Value Source: NWS Daily Summary

Daily Weather History Graph

Daily Weather History Graph

Search for Another Location

Airport or City:

Trip Planner

Search our weather history database for the weather conditions in past years. The results will help you decide how hot, cold, wet, or windy it might be!

Date:

Astronomy

Mar. 21, 2012 Rise Set
Actual Time 7:39 AM CDT 7:54 PM CDT
Civil Twilight 7:08 AM CDT 8:25 PM CDT
Nautical Twilight 6:32 AM CDT 9:02 PM CDT
Astronomical Twilight 5:54 AM CDT 9:39 PM CDT
Moon 6:52 AM CDT (3/21) 7:24 PM CDT (3/21)
Length of Visible Light 13h 16m
Length of Day
12h 15m
Waning Crescent, 1% of the Moon is Illuminated
Mar 21
Waning Crescent
Mar 22
New
Mar 30
First Quarter
Apr 6
Full
Apr 13
Last Quarter

Hourly Weather History & Observations

Time (CDT) Temp. Windchill Dew Point Humidity Pressure Visibility Wind Dir Wind Speed Gust Speed Precip Events Conditions
12:15 AM 41.0 °F 34.3 °F 24.8 °F 53% 29.81 in 10.0 mi South 11.5 mph 17.3 mph N/A   Clear
12:35 AM 41.0 °F 34.3 °F 24.8 °F 53% 29.81 in 10.0 mi South 11.5 mph 18.4 mph N/A   Clear
12:55 AM 42.8 °F 37.5 °F 24.8 °F 49% 29.81 in 10.0 mi SSW 9.2 mph - N/A   Clear
1:15 AM 42.8 °F 35.8 °F 24.8 °F 49% 29.81 in 10.0 mi SSW 13.8 mph 18.4 mph N/A   Clear
1:35 AM 41.0 °F 33.9 °F 24.8 °F 53% 29.81 in 10.0 mi SSW 12.7 mph 18.4 mph N/A   Clear
1:55 AM 41.0 °F 33.1 °F 24.8 °F 53% 29.81 in 10.0 mi SSW 15.0 mph 19.6 mph N/A   Clear
2:55 AM 41.0 °F 32.5 °F 24.8 °F 53% 29.82 in 10.0 mi SW 17.3 mph 25.3 mph N/A   Clear
3:15 AM 39.2 °F 30.8 °F 24.8 °F 56% 29.82 in 10.0 mi SW 15.0 mph - N/A   Clear
3:35 AM 39.2 °F 31.6 °F 26.6 °F 61% 29.82 in 10.0 mi SW 12.7 mph - N/A   Clear
3:55 AM 37.4 °F 28.5 °F 26.6 °F 65% 29.81 in 10.0 mi SW 15.0 mph 19.6 mph N/A   Clear
4:15 AM 37.4 °F 29.3 °F 26.6 °F 65% 29.81 in 10.0 mi SW 12.7 mph - N/A   Clear
4:35 AM 39.2 °F 30.5 °F 24.8 °F 56% 29.80 in 10.0 mi SW 16.1 mph 21.9 mph N/A   Clear
4:55 AM 39.2 °F 30.2 °F 26.6 °F 61% 29.80 in 10.0 mi SW 17.3 mph - N/A   Clear
5:15 AM 39.2 °F 31.2 °F 26.6 °F 61% 29.80 in 10.0 mi SW 13.8 mph - N/A   Clear
5:35 AM 37.4 °F 29.3 °F 26.6 °F 65% 29.81 in 10.0 mi SW 12.7 mph - N/A   Clear
5:55 AM 37.4 °F 29.8 °F 26.6 °F 65% 29.81 in 10.0 mi SW 11.5 mph 18.4 mph N/A   Clear
6:15 AM 35.6 °F 27.5 °F 26.6 °F 70% 29.83 in 10.0 mi SSW 11.5 mph 18.4 mph N/A   Clear
6:35 AM 35.6 °F 27.5 °F 26.6 °F 70% 29.83 in 10.0 mi SW 11.5 mph - N/A   Clear
6:55 AM 35.6 °F 27.5 °F 26.6 °F 70% 29.83 in 10.0 mi SW 11.5 mph - N/A   Clear
7:15 AM 35.6 °F 29.2 °F 26.6 °F 70% 29.84 in 10.0 mi SW 8.1 mph - N/A   Clear
7:35 AM 33.8 °F 25.8 °F 26.6 °F 75% 29.85 in 10.0 mi WSW 10.4 mph - N/A   Clear
7:55 AM 33.8 °F 27.7 °F 26.6 °F 75% 29.86 in 10.0 mi SSW 6.9 mph - N/A   Clear
8:15 AM 35.6 °F 29.9 °F 26.6 °F 70% 29.87 in 10.0 mi SW 6.9 mph - N/A   Clear
8:35 AM 37.4 °F 30.8 °F 26.6 °F 65% 29.87 in 10.0 mi WSW 9.2 mph - N/A   Clear
8:55 AM 39.2 °F 32.5 °F 26.6 °F 61% 29.88 in 10.0 mi West 10.4 mph - N/A   Clear
9:15 AM 41.0 °F 33.9 °F 26.6 °F 57% 29.88 in 10.0 mi West 12.7 mph - N/A   Clear
9:35 AM 44.6 °F 38.4 °F 26.6 °F 49% 29.89 in 10.0 mi West 12.7 mph - N/A   Clear
9:55 AM 48.2 °F - 26.6 °F 43% 29.90 in 10.0 mi West 11.5 mph - N/A   Clear
10:15 AM 48.2 °F - 26.6 °F 43% 29.91 in 10.0 mi West 13.8 mph - N/A   Clear
10:35 AM 50.0 °F - 26.6 °F 40% 29.91 in 10.0 mi West 12.7 mph - N/A   Clear
10:55 AM 51.8 °F - 28.4 °F 41% 29.92 in 10.0 mi West 13.8 mph 18.4 mph N/A   Clear
11:15 AM 51.8 °F - 28.4 °F 41% 29.93 in 10.0 mi WNW 11.5 mph - N/A   Clear
11:35 AM 55.4 °F - 28.4 °F 36% 29.94 in 10.0 mi West 10.4 mph 16.1 mph N/A   Clear
11:55 AM 55.4 °F - 26.6 °F 33% 29.94 in 10.0 mi WNW 11.5 mph 17.3 mph N/A   Clear
12:15 PM 55.4 °F - 26.6 °F 33% 29.94 in 10.0 mi West 11.5 mph - N/A   Clear
12:35 PM 57.2 °F - 26.6 °F 31% 29.94 in 10.0 mi WNW 11.5 mph 16.1 mph N/A   Clear
12:55 PM 57.2 °F - 26.6 °F 31% 29.95 in 10.0 mi West 11.5 mph - N/A   Clear
1:15 PM 57.2 °F - 26.6 °F 31% 29.95 in 10.0 mi West 8.1 mph - N/A   Clear
1:35 PM 57.2 °F - 26.6 °F 31% 29.95 in 10.0 mi West 6.9 mph 16.1 mph N/A   Clear
1:55 PM 57.2 °F - 26.6 °F 31% 29.95 in 10.0 mi West 8.1 mph - N/A   Clear
2:15 PM 57.2 °F - 26.6 °F 31% 29.94 in 10.0 mi SW 8.1 mph - N/A   Clear
2:35 PM 59.0 °F - 28.4 °F 31% 29.94 in 10.0 mi SW 8.1 mph - N/A   Clear
2:55 PM 59.0 °F - 28.4 °F 31% 29.93 in 10.0 mi SW 9.2 mph - N/A   Clear
3:15 PM 59.0 °F - 28.4 °F 31% 29.93 in 10.0 mi SSW 8.1 mph - N/A   Clear
3:35 PM 60.8 °F - 28.4 °F 29% 29.93 in 10.0 mi SSW 9.2 mph - N/A   Clear
3:55 PM 62.6 °F - 28.4 °F 27% 29.93 in 10.0 mi WSW 6.9 mph - N/A   Clear
4:15 PM 62.6 °F - 28.4 °F 27% 29.93 in 10.0 mi SSW 10.4 mph - N/A   Clear
4:35 PM 62.6 °F - 28.4 °F 27% 29.94 in 10.0 mi WSW 8.1 mph - N/A   Clear
4:55 PM 62.6 °F - 28.4 °F 27% 29.94 in 10.0 mi SW 10.4 mph - N/A   Clear
5:15 PM 62.6 °F - 28.4 °F 27% 29.93 in 10.0 mi West 5.8 mph - N/A   Clear
5:35 PM 62.6 °F - 26.6 °F 26% 29.93 in 10.0 mi SSW 4.6 mph - N/A   Clear
5:55 PM 62.6 °F - 28.4 °F 27% 29.94 in 10.0 mi WSW 5.8 mph - N/A   Clear
6:15 PM 62.6 °F - 28.4 °F 27% 29.93 in 10.0 mi Calm Calm - N/A   Clear
6:35 PM 62.6 °F - 26.6 °F 26% 29.94 in 10.0 mi Calm Calm - N/A   Clear
6:55 PM 62.6 °F - 26.6 °F 26% 29.94 in 10.0 mi ENE 3.5 mph - N/A   Clear
7:15 PM 59.0 °F - 30.2 °F 34% 29.94 in 10.0 mi East 6.9 mph - N/A   Clear
7:35 PM 57.2 °F - 30.2 °F 36% 29.94 in 10.0 mi East 8.1 mph - N/A   Clear
7:55 PM 51.8 °F - 30.2 °F 44% 29.95 in 10.0 mi East 8.1 mph - N/A   Clear
8:15 PM 50.0 °F - 32.0 °F 50% 29.95 in 10.0 mi ESE 6.9 mph - N/A   Clear
8:35 PM 50.0 °F - 32.0 °F 50% 29.95 in 10.0 mi ESE 6.9 mph - N/A   Clear
8:55 PM 48.2 °F - 32.0 °F 54% 29.95 in 10.0 mi ESE 5.8 mph - N/A   Clear
9:15 PM 48.2 °F - 32.0 °F 54% 29.96 in 10.0 mi SE 4.6 mph - N/A   Clear
9:35 PM 46.4 °F 41.9 °F 33.8 °F 62% 29.97 in 10.0 mi SE 9.2 mph - N/A   Partly Cloudy
9:55 PM 44.6 °F 40.2 °F 33.8 °F 66% 29.97 in 10.0 mi ESE 8.1 mph - N/A   Clear
10:15 PM 44.6 °F 39.7 °F 33.8 °F 66% 29.97 in 10.0 mi ESE 9.2 mph - N/A   Clear
10:35 PM 42.8 °F 40.1 °F 32.0 °F 66% 29.98 in 10.0 mi North 4.6 mph - N/A   Clear
10:55 PM 39.2 °F 34.2 °F 32.0 °F 75% 29.99 in 10.0 mi North 6.9 mph - N/A   Clear
11:15 PM 39.2 °F 35.9 °F 32.0 °F 75% 29.98 in 10.0 mi NE 4.6 mph - N/A   Clear
11:35 PM 39.2 °F 35.0 °F 32.0 °F 75% 29.98 in 10.0 mi East 5.8 mph - N/A   Clear
11:55 PM 39.2 °F 35.9 °F 32.0 °F 75% 29.98 in 10.0 mi SE 4.6 mph - N/A   Clear